Date,TemperatureHighF,TemperatureAvgF,TemperatureLowF,DewpointHighF,DewpointAvgF,DewpointLowF,HumidityHigh,HumidityAvg,HumidityLow,PressureMaxIn,PressureMinIn,WindSpeedMaxMPH,WindSpeedAvgMPH,GustSpeedMaxMPH,PrecipitationSumIn
2013-1-1,51,41,34,25,17,3,65,42,14,30.19,30.01,11,2,12,0.00
2013-1-2,54,39,30,26,21,17,73,51,32,30.23,30.10,6,1,13,0.00
2013-1-3,35,30,26,28,26,23,92,84,66,30.43,30.20,7,2,15,0.00
2013-1-4,32,28,24,29,26,23,93,91,84,30.48,30.38,8,1,11,0.22
2013-1-5,43,34,28,28,25,22,90,71,48,30.43,30.33,11,3,16,0.22
2013-1-6,50,37,28,32,26,21,81,66,44,30.48,30.26,6,1,9,0.04
2013-1-7,52,41,33,32,27,22,83,60,44,30.25,29.87,11,4,16,0.00
2013-1-8,36,34,30,34,31,27,94,90,84,30.13,29.84,7,1,11,0.00
2013-1-9,38,36,33,37,34,32,96,94,89,30.21,30.08,10,2,13,1.09
2013-1-10,56,44,33,42,35,31,92,73,47,30.16,29.95,13,3,18,0.58
2013-1-11,64,56,49,38,26,18,65,33,17,29.94,29.67,25,6,27,0.00
2013-1-12,58,43,32,31,23,16,71,47,29,29.96,29.68,8,1,12,0.00
2013-1-13,43,33,26,21,16,10,71,50,31,30.18,29.97,6,1,15,0.00
2013-1-14,32,26,23,25,22,19,90,84,71,30.20,30.08,6,1,9,0.00
2013-1-15,39,27,22,23,20,18,88,75,51,30.39,30.19,8,1,10,0.00
2013-1-16,52,36,22,19,12,2,78,39,22,30.48,30.36,11,3,18,0.00
2013-1-17,57,43,31,25,21,16,58,43,27,30.53,30.40,11,2,16,0.00
2013-1-18,59,47,36,24,22,19,59,40,23,30.44,30.19,13,3,17,0.00
2013-1-19,70,54,44,24,21,16,39,28,16,30.21,30.06,12,3,17,0.00
2013-1-20,70,53,37,26,23,18,54,33,17,30.17,30.00,12,2,16,0.00
2013-1-21,60,48,39,26,23,18,55,39,24,30.18,30.05,8,2,10,0.00
2013-1-22,73,56,40,33,29,25,57,38,19,30.20,30.07,7,1,12,0.00
2013-1-23,75,60,50,33,31,28,50,35,21,30.20,30.08,11,2,18,0.00
2013-1-24,77,63,52,38,34,29,53,36,18,30.13,29.98,10,3,17,0.00
2013-1-25,77,63,54,40,36,32,57,38,26,30.06,29.92,9,2,15,0.00
2013-1-26,77,64,52,41,37,31,60,41,20,29.97,29.80,15,4,19,0.00
2013-1-27,74,64,53,43,38,32,61,40,24,29.85,29.75,13,3,23,0.00
2013-1-28,71,63,53,41,30,22,52,31,18,29.81,29.66,23,6,29,0.00
2013-1-29,63,51,38,29,20,6,47,31,20,29.89,29.56,29,11,39,0.00
2013-1-30,49,40,32,19,11,4,53,32,16,30.24,29.90,17,8,24,0.00
2013-1-31,64,47,36,17,11,5,34,24,13,30.28,30.12,7,1,10,0.00
2013-2-1,68,54,40,17,14,10,37,22,11,30.21,30.04,13,2,17,0.00
2013-2-2,65,53,43,22,15,7,42,23,14,30.24,30.09,10,2,14,0.00
2013-2-3,64,52,38,28,24,18,56,36,18,30.24,29.91,10,2,17,0.00
2013-2-4,69,58,51,31,28,21,41,31,22,29.91,29.78,20,5,28,0.00
2013-2-5,70,57,46,35,29,21,54,35,22,29.93,29.82,16,3,19,0.00
2013-2-6,72,58,47,35,31,28,50,37,23,29.87,29.73,13,1,19,0.00
2013-2-7,68,56,45,32,25,19,45,32,16,30.05,29.81,12,2,19,0.00
2013-2-8,64,50,36,36,30,23,70,47,30,30.10,29.87,14,4,24,0.00
2013-2-9,74,61,50,38,27,11,59,32,12,29.89,29.54,25,9,35,0.00
2013-2-10,63,50,39,21,17,14,38,28,19,29.92,29.69,14,3,20,0.00
2013-2-11,67,53,38,34,24,17,57,34,19,29.93,29.72,13,2,21,0.00
2013-2-12,55,46,35,33,15,-4,59,32,9,30.07,29.75,23,8,33,0.00
2013-2-13,58,44,31,23,10,-2,68,31,9,30.14,30.00,13,3,17,0.00
2013-2-14,66,51,39,12,9,6,26,19,11,30.06,29.91,12,3,18,0.00
2013-2-15,46,38,33,29,25,11,79,62,24,30.41,30.01,8,2,12,0.00
2013-2-16,62,46,28,26,18,8,81,40,13,30.49,30.16,13,2,14,0.00
2013-2-17,70,56,43,20,13,8,27,19,11,30.15,29.75,12,4,21,0.00
2013-2-18,68,57,45,19,6,-5,23,14,6,29.95,29.74,18,6,30,0.00
2013-2-19,60,51,43,28,18,2,53,29,13,29.98,29.82,13,3,16,0.00
2013-2-20,76,58,41,35,16,-22,71,33,2,29.87,29.39,26,6,38,0.00
2013-2-21,58,46,37,26,16,3,64,34,13,29.87,29.48,26,11,34,0.00
2013-2-22,61,47,34,16,11,7,38,24,13,29.97,29.87,12,2,23,0.00
2013-2-23,66,51,38,20,12,5,42,23,9,30.00,29.76,14,4,22,0.00
2013-2-24,72,59,42,16,2,-25,26,12,2,29.75,29.40,16,5,27,0.00
2013-2-25,54,42,32,18,10,2,49,29,16,30.01,29.61,24,12,31,0.00
2013-2-26,40,39,38,7,6,4,27,25,22,29.98,29.92,7,2,10,0.00
2013-3-2,54,52,50,13,12,11,22,20,18,30.19,30.15,3,1,8,0.00
2013-3-3,79,63,50,12,3,-31,21,11,1,30.15,29.79,16,4,22,0.00
2013-3-4,78,66,56,21,-32,-202,16,5,1,29.79,29.63,21,7,34,0.00
2013-3-5,65,49,37,32,23,14,68,41,17,30.23,29.80,11,4,21,0.00
2013-3-6,72,54,40,22,20,17,45,29,14,30.26,29.99,13,3,19,0.00
2013-3-7,78,64,52,27,21,16,31,21,10,29.98,29.78,10,2,18,0.00
2013-3-8,78,66,57,48,33,22,64,32,18,29.85,29.61,26,4,26,0.00
2013-3-9,70,61,48,42,29,14,51,30,18,29.76,29.51,16,5,21,0.00
2013-3-10,52,44,36,22,16,11,53,34,20,30.18,29.76,13,3,14,0.00
2013-3-11,67,52,38,18,12,3,36,22,8,30.19,29.99,13,3,17,0.00
2013-3-12,69,56,47,24,12,5,35,18,10,30.17,29.96,7,2,14,0.00
2013-3-13,75,55,39,26,19,10,50,30,9,30.30,30.14,10,2,14,0.00
2013-3-14,80,64,51,28,17,1,33,20,5,30.18,30.00,13,3,16,0.00
2013-3-15,83,67,53,30,18,7,35,18,6,30.04,29.78,9,2,14,0.00
2013-3-16,84,72,60,17,6,-9,17,9,3,29.79,29.55,14,4,25,0.00
2013-3-17,80,69,59,14,5,-4,15,8,4,29.67,29.52,22,8,31,0.00
2013-3-18,75,66,56,19,14,5,19,13,8,29.82,29.65,16,5,22,0.00
2013-3-19,81,67,53,29,14,1,34,14,5,29.89,29.71,16,3,20,0.00
2013-3-20,68,53,43,42,38,29,78,59,37,30.12,29.86,11,3,15,0.00
2013-3-21,83,68,54,43,29,4,62,32,5,29.84,29.48,21,6,31,0.00
2013-3-22,80,69,58,29,16,7,32,14,6,29.59,29.45,16,6,24,0.00
2013-3-23,74,64,53,30,16,-2,38,18,6,29.76,29.54,23,8,33,0.00
2013-3-24,57,42,27,17,8,-17,59,29,6,30.09,29.82,9,2,22,0.00
2013-3-25,59,45,32,16,12,6,39,27,18,30.24,30.04,10,3,15,0.00
2013-3-26,65,49,33,18,14,11,45,27,13,30.29,30.07,21,5,26,0.00
2013-3-27,79,62,46,36,27,19,44,28,13,30.08,29.86,18,3,19,0.00
2013-3-28,81,67,57,44,36,27,54,34,14,29.92,29.80,15,2,21,0.00
2013-3-29,81,67,56,47,41,25,64,43,13,29.91,29.80,11,2,17,0.00
2013-3-30,83,69,56,44,28,14,54,27,9,29.90,29.73,14,2,21,0.00
2013-3-31,78,70,59,37,29,21,42,23,15,29.82,29.71,10,2,21,0.00
2013-4-1,84,68,56,50,42,29,71,42,16,29.84,29.63,20,4,30,0.00
2013-4-2,71,60,47,48,45,42,85,58,39,29.80,29.66,11,3,19,0.00
2013-4-3,63,49,40,42,38,34,94,70,39,30.10,29.81,11,2,14,0.00
2013-4-4,76,58,42,36,30,22,71,41,15,30.15,30.00,9,2,15,0.00
2013-4-5,81,67,56,39,30,18,43,28,10,30.04,29.74,15,7,24,0.00
2013-4-6,83,71,59,39,21,6,42,19,6,29.78,29.65,15,5,21,0.00
2013-4-7,86,72,60,21,13,6,18,11,5,29.71,29.54,18,4,21,0.00
2013-4-8,84,74,61,24,16,11,22,12,7,29.56,29.32,13,4,28,0.00
2013-4-9,85,72,56,29,19,1,31,15,4,29.55,29.27,17,7,31,0.00
2013-4-10,61,51,39,31,24,22,54,37,25,29.87,29.55,12,2,14,0.00
2013-4-11,71,57,43,24,18,12,43,25,11,29.90,29.71,20,5,27,0.00
2013-4-12,80,64,51,38,18,9,37,19,7,29.78,29.59,16,3,27,0.00
2013-4-13,75,60,54,50,41,36,71,50,35,29.63,29.53,13,3,27,0.42
2013-4-14,82,67,54,37,28,12,53,28,8,29.69,29.53,19,4,26,0.00
2013-4-15,85,73,61,25,19,10,25,14,6,29.63,29.53,18,4,21,0.00
2013-4-16,90,75,62,55,-2,-100,62,14,1,29.64,29.52,10,3,21,0.00
2013-4-17,87,75,62,57,25,-15,75,31,2,29.54,29.41,15,4,24,0.01
2013-4-18,71,56,43,31,24,4,64,31,7,30.00,29.51,15,3,20,0.00
2013-4-19,69,52,35,22,16,9,47,27,10,30.23,30.00,11,2,17,0.00
2013-4-20,80,64,48,24,12,-21,35,18,2,30.02,29.69,14,4,23,0.00
2013-4-21,86,70,54,18,4,-8,17,9,3,29.91,29.76,12,2,16,0.00
2013-4-22,90,74,58,33,6,-26,25,10,1,29.82,29.61,11,2,18,0.00
2013-4-23,70,60,47,36,31,26,58,36,24,29.96,29.57,11,2,16,0.00
2013-4-24,68,48,33,38,29,25,73,50,27,30.22,29.96,8,2,16,0.00
2013-4-25,80,61,45,44,38,30,63,45,22,30.14,29.80,16,5,27,0.00
2013-4-26,86,71,56,43,25,2,58,28,4,29.93,29.84,14,4,25,0.00
2013-4-27,81,68,54,51,37,19,59,33,22,29.93,29.77,8,2,23,0.00
2013-4-28,79,65,57,56,50,38,86,61,25,29.82,29.68,27,3,30,0.19
2013-4-29,86,68,52,49,40,30,77,43,15,29.79,29.58,13,3,16,0.00
2013-4-30,91,77,62,41,19,-10,42,17,2,29.61,29.47,13,4,22,0.00
2013-5-1,93,78,66,31,12,5,25,9,4,29.72,29.53,10,2,20,0.00
2013-5-2,70,47,38,42,30,22,90,56,25,30.43,29.73,13,5,17,0.00
2013-5-3,68,50,31,24,16,8,69,34,10,30.47,30.03,7,2,17,0.00
2013-5-4,78,58,49,29,16,11,26,20,13,30.03,29.82,7,2,13,0.00
2013-5-6,83,64,63,42,13,-100,41,19,13,29.85,0.00,13,-142,25,0.00
2013-5-7,86,71,58,44,33,24,48,28,12,29.83,29.68,11,3,17,0.00
2013-5-8,84,69,60,49,38,18,62,38,9,29.79,29.67,11,2,16,0.00
2013-6-16,81,67,76,64,41,-100,66,53,54,29.77,29.75,9,-129,10,0.00
2013-6-17,92,75,66,64,59,54,78,58,30,29.82,29.66,10,1,18,0.53
2013-6-18,88,75,62,67,60,54,87,62,41,29.86,29.70,12,3,17,0.00
2013-6-19,94,80,70,63,58,45,77,51,20,29.73,29.58,26,5,34,0.00
2013-6-20,92,76,71,63,50,-100,70,47,20,29.79,29.60,22,-57,26,0.00
2013-6-21,92,69,64,65,43,-100,90,52,30,29.80,29.61,15,-105,37,0.88
2013-6-22,94,78,68,63,60,52,78,57,24,29.73,29.63,14,3,17,0.43
2013-6-23,94,80,70,62,58,48,69,50,21,29.69,29.56,19,5,25,0.00
2013-6-24,93,79,70,62,59,56,65,51,29,29.69,29.60,14,4,22,0.00
2013-6-25,95,82,72,63,60,52,68,49,28,29.70,29.60,10,2,15,0.00
2013-6-26,102,86,74,64,54,35,68,39,10,29.71,29.61,11,3,17,0.00
2013-6-27,98,84,73,60,53,39,61,37,13,29.75,29.66,15,3,21,0.00
2013-6-28,97,81,65,58,50,41,72,38,15,29.82,29.73,9,2,18,0.00
2013-6-29,97,83,70,56,50,44,57,34,18,29.78,29.64,9,1,15,0.00
2013-6-30,90,78,70,56,53,47,56,41,27,29.76,29.65,11,2,16,0.00
2013-7-1,77,68,63,60,56,52,85,67,51,29.97,29.74,5,2,11,0.00
2013-7-2,83,70,56,55,51,47,85,56,31,30.04,29.86,9,1,14,0.00
2013-7-3,83,74,67,50,46,40,46,37,28,29.94,29.72,9,3,15,0.00
2013-7-4,91,78,65,50,47,41,52,35,20,29.77,29.62,15,4,22,0.00
2013-7-5,94,81,68,54,50,46,53,36,20,29.71,29.56,16,4,22,0.00
2013-7-6,95,71,71,54,38,-100,50,37,21,29.66,29.54,16,-85,24,0.00
2013-7-7,92,79,68,57,51,46,55,39,21,29.75,29.63,18,4,22,0.00
2013-7-8,89,76,68,61,58,55,72,55,31,29.83,29.72,16,4,24,0.00
2013-7-9,90,77,67,62,60,56,76,57,32,29.87,29.75,11,4,18,0.00
2013-7-10,92,80,69,62,58,53,73,50,27,29.87,29.70,16,4,18,0.00
2013-7-11,94,81,71,59,55,50,62,43,24,29.78,29.64,11,4,23,0.00
2013-7-12,94,80,68,59,54,48,70,45,22,29.72,29.62,16,4,28,0.00
2013-7-13,93,81,69,54,50,45,56,36,19,29.78,29.66,12,4,21,0.00
2013-7-14,95,82,68,52,45,36,54,30,13,29.75,29.56,13,3,18,0.00
2013-7-15,80,66,59,62,57,47,96,77,32,29.92,29.57,6,1,12,0.08
2013-7-16,63,61,59,61,59,58,96,94,91,30.04,29.92,4,0,9,0.08
2013-7-17,72,66,61,65,62,59,97,88,74,30.06,29.97,14,3,19,0.62
2013-7-18,72,68,65,64,62,61,92,83,71,30.00,29.88,12,4,16,0.03
2013-7-19,80,70,65,64,62,61,89,77,55,29.92,29.77,11,4,17,0.00
2013-7-20,77,71,66,64,62,58,89,73,56,29.83,29.71,11,3,19,0.00
2013-7-21,84,73,64,65,62,58,89,71,44,29.80,29.67,10,3,17,0.03
2013-7-22,86,75,66,65,62,57,86,67,38,29.77,29.67,13,2,23,0.00
2013-7-23,89,78,69,65,62,55,82,61,35,29.78,29.66,13,3,23,0.00
2013-7-24,89,77,70,69,62,56,84,62,37,29.79,29.70,11,1,14,0.06
2013-7-25,94,78,64,63,56,49,84,52,22,29.89,29.76,11,2,16,0.00
2013-7-26,92,77,70,64,59,54,73,55,32,29.86,29.78,9,2,19,0.00
2013-7-27,91,76,68,64,60,53,84,59,29,29.91,29.75,8,1,15,0.00
2013-7-28,91,76,67,63,60,54,77,59,33,29.80,29.63,14,3,19,0.00
2013-7-29,88,77,70,64,60,53,78,58,36,29.83,29.71,14,2,16,0.00
2013-7-30,95,79,73,65,61,56,70,55,28,29.86,29.79,13,2,18,0.02
2013-7-31,96,82,70,62,57,54,68,45,25,29.90,29.76,12,2,17,0.00
2013-8-1,92,80,67,60,51,45,68,40,20,29.86,29.74,16,3,22,0.00
2013-8-2,97,82,70,54,49,43,51,33,18,29.79,29.66,10,2,14,0.00
2013-8-3,96,81,72,55,52,46,53,39,18,29.76,29.68,13,3,23,0.00
2013-8-4,95,82,70,61,56,52,62,43,25,29.77,29.65,21,5,24,0.00
2013-8-5,97,82,71,60,56,51,63,43,21,29.76,29.63,17,3,21,0.00
2013-8-6,93,78,71,67,58,54,80,53,29,29.73,29.66,15,2,29,0.13
2013-8-7,86,74,66,66,59,54,84,60,38,29.82,29.71,9,2,30,0.40
2013-8-8,96,80,70,59,55,50,65,45,22,29.77,29.63,10,2,25,0.00
2013-8-9,92,78,69,60,57,54,73,50,29,29.86,29.68,12,2,16,0.00
2013-8-10,88,76,67,63,60,56,76,58,39,29.95,29.83,10,1,19,0.00
2013-8-11,90,78,68,61,58,54,76,52,30,29.91,29.78,14,3,21,0.00
2013-8-12,91,78,67,62,58,55,78,52,33,29.84,29.72,14,3,19,0.00
2013-8-13,96,78,68,60,52,-100,73,46,22,29.82,29.69,9,-30,16,0.00
2013-8-14,90,80,69,63,60,57,71,52,37,29.81,29.71,12,2,15,0.00
2013-8-15,95,81,68,61,55,49,71,45,25,29.83,29.72,7,1,14,0.00
2013-8-16,96,82,67,60,51,41,54,37,15,29.82,29.73,11,1,17,0.00
2013-8-17,97,82,64,58,53,45,75,41,19,29.89,29.72,13,3,21,0.16
2013-8-18,94,78,70,60,53,49,62,44,22,29.83,29.76,13,4,26,0.01
2013-8-19,94,80,68,56,48,33,60,36,12,29.86,29.73,13,3,21,0.00
2013-8-20,89,78,70,52,50,47,50,39,28,29.80,29.72,12,4,19,0.00
2013-8-21,88,76,64,56,48,42,55,39,23,29.88,29.77,11,3,21,0.00
2013-8-22,88,74,66,62,58,52,77,58,29,29.86,29.75,13,3,17,0.14
2013-8-23,81,72,63,65,59,53,91,65,42,29.91,29.80,14,2,38,0.63
2013-8-24,86,76,68,61,58,53,76,56,34,29.92,29.78,15,4,21,0.00
2013-8-25,87,76,65,61,57,53,74,53,36,29.95,29.83,14,4,22,0.00
2013-8-26,86,76,67,63,58,53,81,57,34,29.93,29.81,12,3,19,0.00
2013-8-27,76,71,67,64,61,60,81,71,61,29.88,29.81,12,5,17,0.00
2013-8-28,86,75,66,62,60,52,83,62,41,29.90,29.80,13,4,19,0.00
2013-8-29,92,79,66,60,55,48,71,46,26,29.93,29.79,9,3,14,0.00
2013-8-30,96,80,64,59,51,37,75,41,13,29.86,29.71,10,3,18,0.00
2013-8-31,93,76,66,54,53,47,65,46,21,29.76,29.70,7,1,13,0.00
2013-9-1,80,79,77,53,53,52,42,41,40,29.71,29.68,12,8,17,0.00
2013-9-2,88,78,68,58,55,52,61,46,32,29.80,29.70,10,1,15,0.00
2013-9-3,88,75,63,62,54,48,71,50,32,29.88,29.75,9,2,19,0.00
2013-9-4,90,77,63,58,52,48,67,44,25,29.92,29.79,14,4,24,0.00
2013-9-5,89,78,68,58,55,52,66,47,29,29.91,29.81,15,3,21,0.00
2013-9-6,89,76,65,59,56,52,75,52,30,29.92,29.77,16,4,19,0.00
2013-9-7,89,76,62,60,56,52,81,53,29,29.86,29.72,10,3,21,0.00
2013-9-8,88,73,63,65,59,54,83,63,32,29.79,29.64,15,3,18,0.08
2013-9-9,83,69,63,64,61,58,93,76,44,29.76,29.70,14,4,24,0.39
2013-9-10,82,72,65,63,62,58,88,71,49,29.84,29.74,16,6,24,0.00
2013-9-11,79,71,68,63,62,61,84,74,57,29.83,29.76,16,5,24,0.00
2013-9-12,80,72,68,62,60,57,82,67,46,29.87,29.76,15,5,24,0.00
2013-9-13,83,73,63,61,55,51,85,56,35,29.82,29.67,13,4,20,0.00
2013-9-14,84,73,61,56,52,45,75,50,30,29.77,29.66,17,5,25,0.00
2013-9-15,85,73,64,60,56,49,73,57,30,29.84,29.73,15,3,22,0.00
2013-9-16,71,67,63,61,57,54,82,71,60,29.88,29.82,10,2,14,0.00
2013-9-19,66,65,64,63,63,62,94,92,90,29.76,29.73,5,1,10,0.53
2013-9-20,72,64,60,67,62,58,95,92,77,29.91,29.72,11,2,20,0.66
2013-9-21,75,65,59,59,57,56,96,79,52,29.96,29.80,4,0,9,0.00
2013-9-22,81,68,54,56,51,48,83,59,33,29.83,29.62,13,3,17,0.00
2013-9-23,87,73,62,56,50,42,67,46,22,29.74,29.62,16,3,19,0.00
2013-9-24,86,71,58,47,39,34,55,34,16,29.87,29.74,6,1,9,0.00
2013-9-25,90,74,61,53,43,36,53,35,15,29.80,29.59,11,2,16,0.00
2013-9-26,91,78,67,57,50,43,58,41,22,29.63,29.53,17,4,21,0.00
2013-9-27,88,76,69,65,58,53,80,55,30,29.60,29.50,13,6,21,0.03
2013-9-28,77,67,59,65,42,-100,82,47,22,29.98,29.57,11,-30,16,0.01
2013-9-29,70,58,53,51,48,47,82,72,44,30.01,29.97,1,0,4,0.00
2013-9-30,88,73,60,45,35,26,53,28,11,29.85,29.67,13,3,18,0.00
2013-10-1,90,76,64,36,30,20,32,20,9,29.74,29.66,13,4,21,0.00
2013-10-2,91,78,66,48,34,27,42,21,13,29.75,29.62,11,2,16,0.00
2013-10-3,90,78,68,59,48,43,60,37,20,29.68,29.54,14,4,20,0.00
2013-10-4,91,78,68,58,45,28,63,35,14,29.67,29.56,15,3,18,0.00
2013-10-5,72,64,55,47,34,21,52,33,22,30.02,29.67,8,2,14,0.00
2013-10-6,67,54,49,34,31,29,51,42,25,30.15,30.01,4,0,8,0.00
2013-10-7,80,65,46,28,19,11,41,20,8,30.12,29.96,11,3,15,0.00
2013-10-8,84,69,57,35,29,22,31,23,13,29.97,29.73,10,3,18,0.00
2013-10-9,87,73,60,47,37,28,48,29,12,29.78,29.66,14,4,23,0.00
2013-10-10,86,74,64,52,44,31,54,37,15,29.71,29.57,15,6,22,0.00
2013-10-11,85,72,60,52,34,25,57,27,13,29.77,29.61,12,2,17,0.00
2013-10-12,64,61,58,40,36,31,50,40,29,29.78,29.76,2,0,10,0.00
2013-10-14,68,67,67,49,49,48,53,52,51,29.81,29.80,1,0,6,0.00
2013-10-15,68,58,48,58,54,47,96,87,53,29.96,29.78,10,1,16,0.60
2013-10-16,69,53,47,57,50,46,97,89,66,30.07,29.94,11,1,13,0.02
2013-10-17,78,63,51,57,53,48,94,72,35,30.02,29.77,9,1,13,0.00
2013-10-18,79,65,49,59,44,26,91,56,16,30.00,29.71,15,3,20,0.00
2013-10-19,72,55,42,47,41,35,77,62,39,30.10,29.92,12,2,17,0.00
2013-10-20,79,64,53,51,40,27,81,47,17,29.95,29.70,11,2,18,0.00
2013-10-21,67,58,48,41,36,26,67,45,34,30.05,29.77,9,2,12,0.00
2013-10-22,74,58,45,45,37,29,85,52,21,30.16,30.02,8,1,11,0.00
2013-10-23,78,62,46,38,32,27,55,35,18,30.08,29.92,10,2,14,0.00
2013-10-24,75,59,52,38,36,34,55,43,23,30.02,29.97,7,1,14,0.00
2013-10-28,80,74,65,55,36,24,69,29,15,29.80,29.72,14,3,19,0.00
2013-10-29,80,69,62,61,50,41,83,53,29,29.83,29.71,9,2,15,0.00
2013-10-30,74,67,62,61,50,43,83,56,36,29.81,29.68,12,2,19,0.01
2013-10-31,71,62,54,48,35,23,67,40,17,29.89,29.72,18,5,29,0.00
2013-11-1,73,61,52,29,22,13,35,23,11,30.08,29.82,14,4,23,0.00
2013-11-2,70,55,47,32,27,18,52,36,14,30.20,30.08,13,3,19,0.00
2013-11-8,50,47,46,46,44,44,92,89,84,30.08,30.05,4,1,10,0.22
2013-11-9,75,58,46,50,43,35,93,63,24,30.12,30.00,12,3,16,0.02
2013-11-10,75,61,47,48,41,37,70,50,26,30.13,30.02,8,1,11,0.00
2013-11-11,77,62,51,52,46,42,82,60,36,30.09,29.97,12,1,13,0.00
2013-11-12,58,42,34,50,40,33,95,91,69,30.61,30.08,9,2,16,0.21
2013-11-13,53,38,34,44,35,32,95,89,70,30.61,30.46,1,0,7,0.01
2013-12-1,71,63,60,41,35,-100,47,37,31,30.02,0.00,8,-33,12,0.00
2013-12-2,73,63,56,37,25,13,46,26,10,29.90,29.69,19,8,25,0.00
2013-12-3,72,63,57,41,31,15,45,31,17,29.69,29.56,16,6,28,0.00
2013-12-4,74,64,54,44,41,36,59,43,28,29.68,29.57,17,3,24,0.00
2013-12-5,62,39,28,43,22,-100,94,68,37,29.98,29.64,11,-82,23,0.18
2013-12-6,32,25,26,31,9,-100,96,81,94,30.38,29.97,3,-144,6,0.01
2013-12-7,33,24,21,32,13,-100,96,86,93,30.40,30.18,0,-73,0,0.00
2013-12-8,66,48,34,37,29,14,97,57,13,30.17,29.93,15,2,20,0.01
2013-12-9,61,46,30,34,27,-100,94,52,32,30.30,29.89,10,-8,14,0.00
2013-12-10,59,41,27,28,23,14,94,56,17,30.39,30.21,10,2,15,0.00
2013-12-11,50,44,36,32,25,19,59,49,31,30.49,30.18,8,1,13,0.00
2013-12-12,55,42,33,32,21,-100,62,47,33,30.48,30.16,5,-20,9,0.00
2013-12-13,62,51,44,41,33,26,67,50,30,30.16,29.86,22,6,32,0.00
2013-12-14,51,43,35,31,23,19,71,46,29,30.37,29.91,11,2,14,0.00
2013-12-15,59,45,32,23,19,16,62,39,19,30.38,30.23,15,3,20,0.00
2013-12-16,66,52,43,22,20,18,41,30,17,30.26,30.12,16,4,22,0.00
2013-12-17,70,53,39,23,20,17,46,30,13,30.26,30.14,5,0,9,0.00
2013-12-18,70,56,43,26,22,17,44,29,14,30.18,29.87,10,2,17,0.00
2013-12-19,74,64,55,38,32,25,42,30,25,29.86,29.59,25,4,25,0.00
2013-12-20,66,58,47,51,45,38,92,65,41,29.65,29.43,18,6,27,0.83
2013-12-21,52,45,38,46,32,26,84,61,42,29.82,29.46,24,9,35,0.00
2013-12-22,46,39,32,35,28,-100,87,70,54,30.31,29.82,15,-18,26,0.00
2013-12-23,59,43,31,31,23,-100,89,54,23,30.46,30.31,7,-20,10,0.00
2013-12-24,62,48,37,32,28,24,64,47,31,30.42,30.11,10,1,18,0.00
2013-12-25,49,42,34,32,30,27,86,64,48,30.41,30.10,7,2,12,0.00
2013-12-26,55,40,29,34,28,21,92,67,33,30.43,30.25,6,1,11,0.01
2013-12-27,54,41,30,36,29,22,85,62,45,30.38,30.26,6,1,9,0.00
2013-12-28,58,46,35,39,34,32,91,66,40,30.27,29.91,13,2,19,0.00
2013-12-29,49,41,30,32,26,21,70,57,45,30.24,29.88,8,3,14,0.00
2013-12-30,63,43,28,27,22,16,74,47,16,30.34,30.20,7,1,12,0.00
2013-12-31,61,46,34,27,22,-100,62,42,24,30.33,30.12,10,-19,18,0.00
2014-1-1,67,53,42,32,26,20,60,39,17,30.15,29.93,16,4,25,0.00
2014-1-2,56,42,29,28,24,18,85,53,27,30.38,30.16,11,3,13,0.00